Regional Weather Roundup
Issued by NWS

Home | Current Version | Previous Version | Graphics & Text | Print | Product List | Glossary On
Versions: 1 2 3 4 5 6 7 8 9 10 11 12 13 14 15 16 17 18 19 20 21 22 23 24 25 26 27 28 29 30 31 32 33 34 35 36 37 38 39 40 41 42 43 44 45 46 47 48 49 50
083
ASUS45 KPSR 242310
RWRAZ

ARIZONA HOURLY REGIONAL WEATHER ROUNDUP
NATIONAL WEATHER SERVICE PHOENIX AZ
400 PM MST FRI MAR 24 2017

NOTE: FAIR INDICATES FEW OR NO CLOUDS BELOW 12,000 FEET WITH NO
SIGNIFICANT WEATHER AND/OR OBSTRUCTIONS TO VISIBILITY.

AZZ001>003-036-250000-
NORTHWEST ARIZONA

CITY           SKY/WX    TMP DP  RH WIND       PRES   REMARKS
BULLHEAD CITY  SUNNY     81  27  13 S10       30.05F
KINGMAN        SUNNY     69  10  10 W12       30.15F
$$

AZZ004>008-015-016-018-250000-
NORTH CENTRAL ARIZONA

CITY           SKY/WX    TMP DP  RH WIND       PRES   REMARKS
GRAND CANYON   SUNNY     56  24  29 MISG      30.24F
WILLIAMS       SUNNY     55  18  22 VRB6      30.25F
PRESCOTT       SUNNY     64  21  19 CALM      30.20F
FLAGSTAFF      SUNNY     53  18  25 W8        30.24F
PAYSON         SUNNY     63  25  23 W8G14     30.23F
PAGE           SUNNY     64  39  39 NE6       30.14F
$$

AZZ009>014-017-250000-
NORTHEAST ARIZONA

CITY           SKY/WX    TMP DP  RH WIND       PRES   REMARKS
WINSLOW        SUNNY     67  12  12 W10       30.18S
SAINT JOHNS    SUNNY     63  21  20 NW17      30.18S
WINDOW ROCK    SUNNY     60  23  24 W9G20     30.18F
SHOW LOW       SUNNY     55  18  22 W12       30.24F
$$

AZZ023-250000-
GREATER PHOENIX AREA

CITY           SKY/WX    TMP DP  RH WIND       PRES   REMARKS
PHOENIX        SUNNY     77  30  17 NW7       30.09F
BUCKEYE        SUNNY     77  28  16 SW6       30.10F
GLENDALE       SUNNY     79  34  19 VRB6      30.11F
LUKE AFB       SUNNY     77  35  22 E6        30.08F
DEER VALLEY    SUNNY     74  35  24 SE5       30.10F
SCOTTSDALE     SUNNY     77  30  17 VRB3      30.12F
MESA-FALCON    SUNNY    N/A N/A N/A SW9       30.09F
MESA-GATEWAY   SUNNY     73  28  19 NW8       30.12F
CHANDLER       SUNNY     77  28  16 VRB5      30.11F
$$

AZZ027-028-250000-
SOUTHWEST MARICOPA COUNTY AND PINAL COUNTY

CITY           SKY/WX    TMP DP  RH WIND       PRES   REMARKS
CASA GRANDE    NOT AVBL
GILA BEND      SUNNY     78  26  15 CALM      30.08F
$$

AZZ503-504-507>509-250000-
SOUTHEAST ARIZONA

CITY           SKY/WX    TMP DP  RH WIND       PRES   REMARKS
TUCSON         SUNNY     74  20  13 N9        30.16F
DAVIS-MONTHAN  SUNNY     72  24  16 NW7       30.15F
NOGALES        SUNNY     71  17  12 NW8G17    30.17F
SIERRA VISTA   SUNNY     68  15  13 CALM      30.21F
DOUGLAS        SUNNY     71  16  12 NW10G18   30.16F
SAFFORD        SUNNY     73  28  18 NW16G26   30.09F
$$

AZZ020-021-025-026-031-250000-
SOUTHWEST ARIZONA

CITY           SKY/WX    TMP DP  RH WIND       PRES   REMARKS
YUMA           SUNNY     79  32  18 CALM      30.08F
$$

CAZ031-033-041-043-047-048-061-250000-
SOUTHERN CALIFORNIA

CITY           SKY/WX    TMP DP  RH WIND       PRES   REMARKS
DOWNTOWN L.A.  SUNNY     66  47  50 W7        30.18S
L.A. AIRPORT   MOSUNNY   63  54  72 W16       30.19F
SAN DIEGO      MOSUNNY   65  49  56 NW13      30.20S
BURBANK        SUNNY     67  46  47 S12       30.16S
ONTARIO        MOSUNNY   71  41  33 SW13G18   30.15S
RIVERSIDE      SUNNY     72  44  36 W14       30.15S
PALM SPRINGS   SUNNY     81  29  15 E8        30.08F
EL CENTRO NAS  SUNNY     81  33  17 E7        30.07F
IMPERIAL       SUNNY     81  36  19 E7        30.06F
NEEDLES        SUNNY     83  23  11 S10       30.06F
$$

NVZ020-UTZ003-250000-
SOUTHERN NEVADA-UTAH

CITY           SKY/WX    TMP DP  RH WIND       PRES   REMARKS
LAS VEGAS      MOSUNNY   78  24  13 VRB7      30.03F
SALT LAKE CITY CLOUDY    58  32  37 S12       30.09F
$$

NMZ009-TXZ055-250000-
NEW MEXICO-WEST TEXAS

CITY           SKY/WX    TMP DP  RH WIND       PRES   REMARKS
ALBUQUERQUE    MOSUNNY   67  19  16 NW17G28   30.05R
EL PASO        SUNNY     74  18  12 W16G26    30.02F
$$


........................KEY........................
SKY/WX - SKY CONDITION/WEATHER
TMP    - TEMPERATURE IN FAHRENHEIT
DP     - DEW POINT IN FAHRENHEIT
RH     - RELATIVE HUMIDITY IN PERCENT
WIND   - DIRECTION AND SPEED IN MILES PER HOUR (MPH)
VRB    - VARIABLE WIND DIRECTION
PRES   - MEAN SEA LEVEL PRESSURE IN INCHES OF MERCURY
         F - FALLING PRESSURE   R - RISING PRESSURE
         S - STEADY PRESSURE
VSB    - VISIBILITY IN MILES
HX     - HEAT INDEX IN FAHRENHEIT
WCI    - WIND CHILL INDEX IN FAHRENHEIT
TC     - TEMPERATURE IN CELSIUS WHICH IS ALSO KNOWN AS
         TEMPERATURE IN CENTIGRADE
AFB    - AIR FORCE BASE
         LUKE AFB IS LUKE AIR FORCE BASE
         DAVIS-MONTHAN IS DAVIS-MONTHAN AIR FORCE BASE
NAS    - NAVAL AIR STATION
         EL CENTRO NAS IS EL CENTRO NAVAL AIR STATION
N/A    - NOT AVAILABLE





USA.gov is the U.S. government's official web portal to all federal, state and local government web resources and services.